Home   Weather   Campbell River   Past weeks
Flag for Canada

Past Weather in Campbell River, British Columbia, Canada — October 2018

Now
55 °F

Light rain. Cloudy.


Feels Like: 53 °F
Forecast: 54 / 49 °F
Wind: 10 mph from Southeast

Location: Campbell River Airport

Current Time: Oct 17, 2019 at 2:30:33 pm

Latest Report: Oct 17, 2019 at 1:28 pm


Visibility: 15 mi

Pressure: 29.44 "Hg

Humidity: 77%

Dew Point: 48 °F

Location of Campbell RiverLocation

October 2018 Weather in Campbell River — Graph

°F

High & Low Weather Summary for October 2018

 TemperatureHumidityPressure
High66 °F (Oct 16, 4:00 pm)100% (Oct 1, 6:00 am)30.43 "Hg (Oct 1, 6:00 am)
Low28 °F (Oct 4, 6:00 am)36% (Oct 4, 4:00 pm)29.67 "Hg (Oct 27, 9:00 pm)
Average49 °F86%30.06 "Hg
* Reported Oct 1 6:00 am — Oct 31 9:00 pm, Campbell River. Weather by CustomWeather, © 2019

Note: Actual official high and low records may vary slightly from our data, if they occured in-between our weather recording intervals... More about our weather records

Advertising

Campbell River Weather History for October 1, 2018

Scroll right to see more
 ConditionsComfort  
Time TempWeatherWind HumidityBarometerVisibility
6:00 am
Mon, Oct 1
48 °FLight rain. Fog.No wind100%29.72 "Hg5 mi
7:00 am48 °FLight rain. Fog.3 mph100%29.73 "Hg5 mi
8:00 am50 °FLight rain. Fog.3 mph94%29.75 "Hg6 mi
8:38 am50 °FFog.5 mph94%29.76 "Hg6 mi
9:00 am50 °FMore clouds than sun.5 mph94%29.76 "Hg7 mi
10:16 am52 °FMore clouds than sun.3 mph88%29.78 "Hg8 mi
11:00 am52 °FCloudy.5 mph88%29.79 "Hg8 mi
11:19 am52 °FMostly cloudy.7 mph82%29.79 "Hg8 mi
12:00 pm54 °FMostly cloudy.5 mph77%29.80 "Hg8 mi
1:00 pm54 °FMostly cloudy.5 mph77%29.80 "Hg12 mi
2:26 pm54 °FPartly sunny.3 mph82%29.80 "Hg12 mi
3:00 pm54 °FPartly sunny.3 mph82%29.79 "Hg12 mi
4:00 pm55 °FPartly sunny.3 mph77%29.79 "Hg15 mi
5:00 pm54 °FPartly sunny.5 mph77%29.79 "Hg15 mi
6:00 pm54 °FBroken clouds.3 mph77%29.79 "Hg15 mi
7:08 pm52 °FLight rain. Mostly cloudy.No wind94%29.79 "Hg12 mi
8:00 pm52 °FLight rain. Mostly cloudy.No wind94%29.79 "Hg12 mi
9:00 pm50 °FLight rain. Mostly cloudy.No wind100%29.79 "Hg12 mi
Weather by CustomWeather, © 2019

See weather overview